Time,TemperatureF,DewpointF,PressureIn,WindDirection,WindDirectionDegrees,WindSpeedMPH,WindSpeedGustMPH,Humidity,HourlyPrecipIn,Conditions,Clouds,dailyrainin,SoftwareType,DateUTC
2013-03-11 00:00:00,43.2,35.1,29.87,SW,229,0.0,0.0,73,0.00,,,0.00,Wunderground v.1.13,2013-03-11 04:00:00,
2013-03-11 00:05:00,43.3,35.2,29.87,SW,229,0.0,0.0,73,0.00,,,0.00,Wunderground v.1.13,2013-03-11 04:05:00,
2013-03-11 00:10:00,43.6,35.2,29.87,SW,229,0.0,0.0,72,0.00,,,0.00,Wunderground v.1.13,2013-03-11 04:10:00,
2013-03-11 00:15:00,44.1,36.3,29.86,SW,229,0.0,0.0,74,0.00,,,0.00,Wunderground v.1.13,2013-03-11 04:15:00,
2013-03-11 00:20:00,44.3,36.9,29.86,SW,229,0.0,0.0,75,0.00,,,0.00,Wunderground v.1.13,2013-03-11 04:20:00,
2013-03-11 00:25:00,44.8,35.6,29.86,West,280,0.0,0.0,70,0.00,,,0.00,Wunderground v.1.13,2013-03-11 04:25:00,
2013-03-11 00:30:00,45.1,36.6,29.86,West,280,0.0,1.0,72,0.00,,,0.00,Wunderground v.1.13,2013-03-11 04:30:00,
2013-03-11 00:35:00,45.4,35.8,29.86,West,280,0.0,0.0,69,0.00,,,0.00,Wunderground v.1.13,2013-03-11 04:35:00,
2013-03-11 00:45:00,46.1,36.1,29.84,WSW,247,0.0,3.0,68,0.00,,,0.00,Wunderground v.1.13,2013-03-11 04:45:00,
2013-03-11 00:50:00,46.2,36.6,29.84,WSW,247,0.0,1.0,69,0.00,,,0.00,Wunderground v.1.13,2013-03-11 04:50:00,
2013-03-11 00:55:00,46.4,37.1,29.84,NW,313,0.0,0.0,70,0.00,,,0.00,Wunderground v.1.13,2013-03-11 04:55:00,
2013-03-11 01:00:00,46.4,37.5,29.84,NW,313,0.0,2.0,71,0.00,,,0.00,Wunderground v.1.13,2013-03-11 05:00:00,
2013-03-11 01:10:00,46.5,38.3,29.84,WNW,287,0.0,2.0,73,0.00,,,0.00,Wunderground v.1.13,2013-03-11 05:10:00,
2013-03-11 01:20:00,46.5,39.0,29.84,WNW,299,0.0,2.0,75,0.00,,,0.00,Wunderground v.1.13,2013-03-11 05:20:00,
2013-03-11 01:25:00,46.7,39.2,29.84,NW,325,0.0,0.0,75,0.00,,,0.00,Wunderground v.1.13,2013-03-11 05:25:00,
2013-03-11 01:30:00,46.7,40.2,29.83,NNW,339,0.0,2.0,78,0.00,,,0.00,Wunderground v.1.13,2013-03-11 05:30:00,
2013-03-11 01:35:00,46.7,40.5,29.83,NNW,339,0.0,1.0,79,0.00,,,0.00,Wunderground v.1.13,2013-03-11 05:35:00,
2013-03-11 01:50:00,46.7,41.5,29.81,West,281,0.0,1.0,82,0.00,,,0.00,Wunderground v.1.13,2013-03-11 05:50:00,
2013-03-11 01:55:00,46.7,41.8,29.81,West,281,0.0,1.0,83,0.00,,,0.00,Wunderground v.1.13,2013-03-11 05:55:00,
2013-03-11 02:05:00,46.5,41.9,29.81,NNE,13,0.0,3.0,84,0.00,,,0.00,Wunderground v.1.13,2013-03-11 06:05:00,
2013-03-11 02:10:00,46.4,41.8,29.81,NNE,13,0.0,1.0,84,0.00,,,0.00,Wunderground v.1.13,2013-03-11 06:10:00,
2013-03-11 02:15:00,46.4,42.1,29.82,SW,226,0.0,1.0,85,0.00,,,0.00,Wunderground v.1.13,2013-03-11 06:15:00,
2013-03-11 02:20:00,46.4,42.4,29.82,NNW,332,0.0,1.0,86,0.00,,,0.00,Wunderground v.1.13,2013-03-11 06:20:00,
2013-03-11 02:30:00,46.2,42.2,29.82,NNW,332,0.0,1.0,86,0.00,,,0.00,Wunderground v.1.13,2013-03-11 06:30:00,
2013-03-11 02:35:00,46.2,42.8,29.82,NNW,332,0.0,0.0,88,0.00,,,0.00,Wunderground v.1.13,2013-03-11 06:35:00,
2013-03-11 02:45:00,46.1,43.0,29.81,NNW,332,0.0,0.0,89,0.00,,,0.00,Wunderground v.1.13,2013-03-11 06:45:00,
2013-03-11 02:50:00,46.1,43.6,29.81,WNW,295,0.0,1.0,91,0.00,,,0.00,Wunderground v.1.13,2013-03-11 06:50:00,
2013-03-11 02:55:00,46.0,43.5,29.81,WNW,301,0.0,1.0,91,0.00,,,0.00,Wunderground v.1.13,2013-03-11 06:55:00,
2013-03-11 03:05:00,45.8,43.9,29.80,WSW,251,0.0,2.0,93,0.00,,,0.00,Wunderground v.1.13,2013-03-11 07:05:00,
2013-03-11 03:10:00,45.7,43.8,29.80,WSW,251,0.0,3.0,93,0.00,,,0.00,Wunderground v.1.13,2013-03-11 07:10:00,
2013-03-11 03:20:00,45.5,43.9,29.79,WNW,295,0.0,2.0,94,0.00,,,0.00,Wunderground v.1.13,2013-03-11 07:20:00,
2013-03-11 03:25:00,45.4,43.8,29.79,WNW,295,0.0,2.0,94,0.00,,,0.00,Wunderground v.1.13,2013-03-11 07:25:00,
2013-03-11 03:30:00,45.4,44.1,29.79,West,270,0.0,2.0,95,0.00,,,0.00,Wunderground v.1.13,2013-03-11 07:30:00,
2013-03-11 03:35:00,45.2,43.9,29.79,West,270,0.0,2.0,95,0.00,,,0.00,Wunderground v.1.13,2013-03-11 07:35:00,
2013-03-11 03:40:00,45.2,44.1,29.79,SE,130,0.0,2.0,96,0.00,,,0.00,Wunderground v.1.13,2013-03-11 07:40:00,
2013-03-11 03:50:00,45.2,44.4,29.80,SSW,196,0.0,2.0,97,0.00,,,0.00,Wunderground v.1.13,2013-03-11 07:50:00,
2013-03-11 03:55:00,45.2,44.4,29.80,SSW,213,0.0,5.0,97,0.00,,,0.00,Wunderground v.1.13,2013-03-11 07:55:00,
2013-03-11 04:05:00,45.1,44.3,29.79,SW,220,0.0,1.0,97,0.00,,,0.00,Wunderground v.1.13,2013-03-11 08:05:00,
2013-03-11 04:10:00,45.1,44.3,29.79,North,4,0.0,2.0,97,0.00,,,0.00,Wunderground v.1.13,2013-03-11 08:10:00,
2013-03-11 04:15:00,45.1,44.3,29.79,North,7,0.0,2.0,97,0.00,,,0.00,Wunderground v.1.13,2013-03-11 08:15:00,
2013-03-11 04:20:00,45.1,44.3,29.79,SE,131,0.0,1.0,97,0.00,,,0.00,Wunderground v.1.13,2013-03-11 08:20:00,
2013-03-11 04:25:00,44.9,44.4,29.79,WSW,250,0.0,2.0,98,0.00,,,0.00,Wunderground v.1.13,2013-03-11 08:25:00,
2013-03-11 04:35:00,44.9,44.4,29.77,SE,136,0.0,2.0,98,0.00,,,0.00,Wunderground v.1.13,2013-03-11 08:35:00,
2013-03-11 04:40:00,44.8,44.3,29.77,SE,136,0.0,2.0,98,0.00,,,0.00,Wunderground v.1.13,2013-03-11 08:40:00,
2013-03-11 04:45:00,44.8,44.3,29.76,SE,136,0.0,1.0,98,0.00,,,0.00,Wunderground v.1.13,2013-03-11 08:45:00,
2013-03-11 04:50:00,44.6,44.1,29.76,SSE,158,0.0,1.0,98,0.00,,,0.00,Wunderground v.1.13,2013-03-11 08:50:00,
2013-03-11 05:00:00,44.6,44.1,29.75,North,352,0.0,2.0,98,0.00,,,0.00,Wunderground v.1.13,2013-03-11 09:00:00,
2013-03-11 05:05:00,44.5,44.0,29.75,North,352,0.0,1.0,98,0.00,,,0.00,Wunderground v.1.13,2013-03-11 09:05:00,
2013-03-11 05:10:00,44.5,44.2,29.75,SE,136,0.0,1.0,99,0.00,,,0.00,Wunderground v.1.13,2013-03-11 09:10:00,
2013-03-11 05:20:00,44.3,44.0,29.75,NW,311,1.0,1.0,99,0.00,,,0.00,Wunderground v.1.13,2013-03-11 09:20:00,
2013-03-11 05:25:00,44.3,44.3,29.75,North,0,0.0,3.0,100,0.00,,,0.00,Wunderground v.1.13,2013-03-11 09:25:00,
2013-03-11 05:30:00,44.3,44.3,29.74,ENE,78,0.0,3.0,100,0.00,,,0.00,Wunderground v.1.13,2013-03-11 09:30:00,
2013-03-11 05:35:00,44.3,44.3,29.74,NNW,340,0.0,3.0,100,0.00,,,0.00,Wunderground v.1.13,2013-03-11 09:35:00,
2013-03-11 05:40:00,44.3,44.3,29.74,NNW,340,0.0,2.0,100,0.00,,,0.00,Wunderground v.1.13,2013-03-11 09:40:00,
2013-03-11 05:45:00,44.3,44.3,29.76,SSE,154,0.0,0.0,100,0.00,,,0.00,Wunderground v.1.13,2013-03-11 09:45:00,
2013-03-11 05:55:00,44.3,44.3,29.76,East,100,0.0,3.0,100,0.00,,,0.00,Wunderground v.1.13,2013-03-11 09:55:00,
2013-03-11 06:05:00,44.3,44.3,29.76,NNE,21,0.0,3.0,100,0.00,,,0.00,Wunderground v.1.13,2013-03-11 10:05:00,
2013-03-11 06:10:00,44.3,44.3,29.76,NNE,24,0.0,2.0,100,0.00,,,0.00,Wunderground v.1.13,2013-03-11 10:10:00,
2013-03-11 06:15:00,44.3,44.3,29.77,NW,319,0.0,0.0,100,0.00,,,0.00,Wunderground v.1.13,2013-03-11 10:15:00,
2013-03-11 06:25:00,44.2,44.2,29.77,NNW,347,0.0,3.0,100,0.00,,,0.00,Wunderground v.1.13,2013-03-11 10:25:00,
2013-03-11 06:30:00,44.2,44.2,29.77,SW,233,0.0,3.0,100,0.00,,,0.00,Wunderground v.1.13,2013-03-11 10:30:00,
2013-03-11 06:40:00,44.1,44.1,29.77,ESE,123,0.0,4.0,100,0.00,,,0.00,Wunderground v.1.13,2013-03-11 10:40:00,
2013-03-11 06:45:00,44.1,44.1,29.78,ESE,123,0.0,0.0,100,0.00,,,0.00,Wunderground v.1.13,2013-03-11 10:45:00,
2013-03-11 06:50:00,44.1,44.1,29.78,NW,318,0.0,0.0,100,0.00,,,0.00,Wunderground v.1.13,2013-03-11 10:50:00,
2013-03-11 06:55:00,44.1,44.1,29.78,SSW,196,1.0,1.0,100,0.00,,,0.00,Wunderground v.1.13,2013-03-11 10:55:00,
2013-03-11 07:05:00,43.9,43.9,29.78,NNW,346,0.0,2.0,100,0.00,,,0.00,Wunderground v.1.13,2013-03-11 11:05:00,
2013-03-11 07:10:00,43.9,43.9,29.78,WSW,250,0.0,2.0,100,0.00,,,0.00,Wunderground v.1.13,2013-03-11 11:10:00,
2013-03-11 07:15:00,43.9,43.9,29.78,WSW,250,0.0,1.0,100,0.00,,,0.00,Wunderground v.1.13,2013-03-11 11:15:00,
2013-03-11 07:20:00,43.8,43.8,29.78,South,178,0.0,0.0,100,0.00,,,0.00,Wunderground v.1.13,2013-03-11 11:20:00,
2013-03-11 07:30:00,43.8,43.8,29.79,WSW,247,0.0,5.0,100,0.00,,,0.00,Wunderground v.1.13,2013-03-11 11:30:00,
2013-03-11 07:35:00,43.8,43.8,29.79,West,270,0.0,2.0,100,0.00,,,0.00,Wunderground v.1.13,2013-03-11 11:35:00,
2013-03-11 07:40:00,43.6,43.6,29.79,SSW,203,0.0,3.0,100,0.00,,,0.00,Wunderground v.1.13,2013-03-11 11:40:00,
2013-03-11 07:45:00,43.6,43.6,29.80,SSW,195,0.0,2.0,100,0.00,,,0.00,Wunderground v.1.13,2013-03-11 11:45:00,
2013-03-11 07:50:00,43.6,43.6,29.80,NW,315,0.0,6.0,100,0.00,,,0.00,Wunderground v.1.13,2013-03-11 11:50:00,
2013-03-11 07:55:00,43.5,43.5,29.80,NW,315,0.0,1.0,100,0.00,,,0.00,Wunderground v.1.13,2013-03-11 11:55:00,
2013-03-11 08:05:00,43.5,43.5,29.79,WSW,246,0.0,3.0,100,0.00,,,0.00,Wunderground v.1.13,2013-03-11 12:05:00,
2013-03-11 08:10:00,43.5,43.5,29.79,South,171,0.0,3.0,100,0.00,,,0.00,Wunderground v.1.13,2013-03-11 12:10:00,
2013-03-11 08:20:00,43.5,43.5,29.79,WSW,248,0.0,3.0,100,0.00,,,0.00,Wunderground v.1.13,2013-03-11 12:20:00,
2013-03-11 08:25:00,43.5,43.5,29.79,WNW,282,0.0,2.0,100,0.00,,,0.00,Wunderground v.1.13,2013-03-11 12:25:00,
2013-03-11 08:35:00,43.5,43.5,29.79,ENE,78,1.0,1.0,100,0.00,,,0.00,Wunderground v.1.13,2013-03-11 12:35:00,
2013-03-11 08:40:00,43.5,43.5,29.79,WNW,301,0.0,4.0,100,0.00,,,0.00,Wunderground v.1.13,2013-03-11 12:40:00,
2013-03-11 08:45:00,43.5,43.5,29.80,WSW,237,0.0,1.0,100,0.00,,,0.00,Wunderground v.1.13,2013-03-11 12:45:00,
2013-03-11 08:50:00,43.5,43.5,29.80,NNW,328,0.0,1.0,100,0.00,,,0.00,Wunderground v.1.13,2013-03-11 12:50:00,
2013-03-11 09:00:00,43.5,43.5,29.79,SSW,193,0.0,2.0,100,0.00,,,0.00,Wunderground v.1.13,2013-03-11 13:00:00,
2013-03-11 09:05:00,43.5,43.5,29.79,SW,232,0.0,1.0,100,0.00,,,0.00,Wunderground v.1.13,2013-03-11 13:05:00,
2013-03-11 09:10:00,43.5,43.5,29.79,SW,230,0.0,2.0,100,0.00,,,0.00,Wunderground v.1.13,2013-03-11 13:10:00,
2013-03-11 09:15:00,43.5,43.5,29.78,SSE,165,0.0,1.0,100,0.00,,,0.00,Wunderground v.1.13,2013-03-11 13:15:00,
2013-03-11 09:20:00,43.5,43.5,29.78,NW,318,0.0,2.0,100,0.00,,,0.00,Wunderground v.1.13,2013-03-11 13:20:00,
2013-03-11 09:30:00,43.6,43.6,29.78,ESE,110,1.0,1.0,100,0.00,,,0.00,Wunderground v.1.13,2013-03-11 13:30:00,
2013-03-11 09:35:00,43.6,43.6,29.78,North,1,1.0,1.0,100,0.00,,,0.00,Wunderground v.1.13,2013-03-11 13:35:00,
2013-03-11 09:40:00,43.6,43.6,29.78,NNW,342,0.0,5.0,100,0.00,,,0.00,Wunderground v.1.13,2013-03-11 13:40:00,
2013-03-11 09:45:00,43.6,43.6,29.79,WSW,250,0.0,5.0,100,0.00,,,0.00,Wunderground v.1.13,2013-03-11 13:45:00,
2013-03-11 09:50:00,43.8,43.8,29.79,SSW,198,0.0,3.0,100,0.00,,,0.00,Wunderground v.1.13,2013-03-11 13:50:00,
2013-03-11 10:00:00,44.1,44.1,29.79,SSW,213,1.0,1.0,100,0.00,,,0.00,Wunderground v.1.13,2013-03-11 14:00:00,
2013-03-11 10:10:00,44.1,44.1,29.79,West,268,0.0,3.0,100,0.00,,,0.00,Wunderground v.1.13,2013-03-11 14:10:00,
2013-03-11 10:15:00,44.1,44.1,29.79,West,277,0.0,3.0,100,0.00,,,0.00,Wunderground v.1.13,2013-03-11 14:15:00,
2013-03-11 10:20:00,43.9,43.9,29.79,NW,305,0.0,3.0,100,0.00,,,0.00,Wunderground v.1.13,2013-03-11 14:20:00,
2013-03-11 10:25:00,43.9,43.9,29.79,North,359,0.0,2.0,100,0.00,,,0.00,Wunderground v.1.13,2013-03-11 14:25:00,
2013-03-11 10:35:00,43.9,43.9,29.78,NW,326,0.0,1.0,100,0.00,,,0.00,Wunderground v.1.13,2013-03-11 14:35:00,
2013-03-11 10:40:00,43.9,43.9,29.78,NW,326,0.0,1.0,100,0.00,,,0.00,Wunderground v.1.13,2013-03-11 14:40:00,
2013-03-11 10:45:00,43.9,43.9,29.78,NNW,328,0.0,2.0,100,0.00,,,0.00,Wunderground v.1.13,2013-03-11 14:45:00,
2013-03-11 10:50:00,43.9,43.9,29.78,ENE,61,0.0,2.0,100,0.00,,,0.00,Wunderground v.1.13,2013-03-11 14:50:00,
2013-03-11 10:55:00,43.9,43.9,29.78,North,4,0.0,5.0,100,0.00,,,0.00,Wunderground v.1.13,2013-03-11 14:55:00,
2013-03-11 11:05:00,43.8,43.8,29.77,SW,229,0.0,1.0,100,0.00,,,0.00,Wunderground v.1.13,2013-03-11 15:05:00,
2013-03-11 11:15:00,44.1,44.1,29.77,NNE,16,0.0,2.0,100,0.00,,,0.00,Wunderground v.1.13,2013-03-11 15:15:00,
2013-03-11 11:20:00,43.9,43.9,29.77,NNW,332,0.0,1.0,100,0.00,,,0.00,Wunderground v.1.13,2013-03-11 15:20:00,
2013-03-11 11:25:00,43.9,43.9,29.77,WNW,291,0.0,2.0,100,0.00,,,0.00,Wunderground v.1.13,2013-03-11 15:25:00,
2013-03-11 11:30:00,43.9,43.9,29.77,NNE,20,0.0,3.0,100,0.00,,,0.00,Wunderground v.1.13,2013-03-11 15:30:00,
2013-03-11 11:35:00,43.8,43.8,29.77,SSE,165,0.0,3.0,100,0.00,,,0.00,Wunderground v.1.13,2013-03-11 15:35:00,
2013-03-11 11:40:00,43.9,43.9,29.77,SSE,165,0.0,3.0,100,0.00,,,0.00,Wunderground v.1.13,2013-03-11 15:40:00,
2013-03-11 11:50:00,43.9,43.9,29.76,East,97,1.0,1.0,100,0.00,,,0.00,Wunderground v.1.13,2013-03-11 15:50:00,
2013-03-11 11:55:00,44.1,44.1,29.76,ESE,104,1.0,8.0,100,0.00,,,0.00,Wunderground v.1.13,2013-03-11 15:55:00,
2013-03-11 12:05:00,44.3,44.3,29.75,East,100,0.0,2.0,100,0.00,,,0.00,Wunderground v.1.13,2013-03-11 16:05:00,
2013-03-11 12:10:00,44.3,44.3,29.75,NW,308,1.0,2.0,100,0.00,,,0.00,Wunderground v.1.13,2013-03-11 16:10:00,
2013-03-11 12:15:00,44.3,44.3,29.75,NW,309,0.0,2.0,100,0.00,,,0.00,Wunderground v.1.13,2013-03-11 16:15:00,
2013-03-11 12:20:00,44.3,44.3,29.75,WNW,292,0.0,2.0,100,0.00,,,0.00,Wunderground v.1.13,2013-03-11 16:20:00,
2013-03-11 12:25:00,44.3,44.3,29.75,WNW,292,0.0,1.0,100,0.00,,,0.00,Wunderground v.1.13,2013-03-11 16:25:00,
2013-03-11 12:35:00,44.3,44.3,29.74,SE,133,0.0,1.0,100,0.00,,,0.00,Wunderground v.1.13,2013-03-11 16:35:00,
2013-03-11 12:40:00,44.3,44.3,29.74,SE,145,0.0,1.0,100,0.00,,,0.00,Wunderground v.1.13,2013-03-11 16:40:00,
2013-03-11 12:45:00,44.2,44.2,29.74,SSE,151,1.0,2.0,100,0.00,,,0.00,Wunderground v.1.13,2013-03-11 16:45:00,
2013-03-11 12:50:00,44.2,44.2,29.74,ESE,102,1.0,1.0,100,0.00,,,0.00,Wunderground v.1.13,2013-03-11 16:50:00,
2013-03-11 12:55:00,44.2,44.2,29.74,SE,127,1.0,1.0,100,0.00,,,0.00,Wunderground v.1.13,2013-03-11 16:55:00,
2013-03-11 13:05:00,44.2,44.2,29.73,West,263,0.0,3.0,100,0.00,,,0.00,Wunderground v.1.13,2013-03-11 17:05:00,
2013-03-11 13:10:00,44.2,44.2,29.73,ESE,123,0.0,3.0,100,0.00,,,0.00,Wunderground v.1.13,2013-03-11 17:10:00,
2013-03-11 13:15:00,44.3,44.3,29.72,NE,45,0.0,2.0,100,0.00,,,0.00,Wunderground v.1.13,2013-03-11 17:15:00,
2013-03-11 13:25:00,44.3,44.3,29.72,NNW,340,0.0,1.0,100,0.00,,,0.00,Wunderground v.1.13,2013-03-11 17:25:00,
2013-03-11 13:30:00,44.5,44.5,29.71,SSE,165,0.0,2.0,100,0.00,,,0.00,Wunderground v.1.13,2013-03-11 17:30:00,
2013-03-11 13:35:00,44.5,44.5,29.71,NW,309,0.0,2.0,100,0.00,,,0.00,Wunderground v.1.13,2013-03-11 17:35:00,
2013-03-11 13:40:00,44.6,44.6,29.71,North,7,0.0,1.0,100,0.00,,,0.00,Wunderground v.1.13,2013-03-11 17:40:00,
2013-03-11 13:45:00,44.8,44.8,29.70,SE,144,0.0,1.0,100,0.00,,,0.00,Wunderground v.1.13,2013-03-11 17:45:00,
2013-03-11 13:50:00,44.8,44.8,29.70,SSE,167,0.0,3.0,100,0.00,,,0.00,Wunderground v.1.13,2013-03-11 17:50:00,
2013-03-11 13:55:00,44.8,44.8,29.70,West,271,0.0,5.0,100,0.00,,,0.00,Wunderground v.1.13,2013-03-11 17:55:00,
2013-03-11 14:05:00,44.9,44.9,29.68,WSW,241,0.0,2.0,100,0.00,,,0.00,Wunderground v.1.13,2013-03-11 18:05:00,
2013-03-11 14:15:00,45.1,45.1,29.66,WSW,256,0.0,2.0,100,0.00,,,0.00,Wunderground v.1.13,2013-03-11 18:15:00,
2013-03-11 14:25:00,45.2,45.2,29.66,NNW,333,0.0,2.0,100,0.00,,,0.00,Wunderground v.1.13,2013-03-11 18:25:00,
2013-03-11 14:30:00,45.2,45.2,29.66,NNW,333,0.0,0.0,100,0.00,,,0.00,Wunderground v.1.13,2013-03-11 18:30:00,
2013-03-11 14:35:00,45.4,45.4,29.66,NNW,333,0.0,1.0,100,0.00,,,0.00,Wunderground v.1.13,2013-03-11 18:35:00,
2013-03-11 14:40:00,45.4,45.4,29.66,NNW,333,0.0,0.0,100,0.00,,,0.00,Wunderground v.1.13,2013-03-11 18:40:00,
2013-03-11 14:45:00,45.5,45.5,29.65,West,260,0.0,1.0,100,0.00,,,0.00,Wunderground v.1.13,2013-03-11 18:45:00,
2013-03-11 14:50:00,45.7,45.7,29.65,West,260,0.0,2.0,100,0.00,,,0.00,Wunderground v.1.13,2013-03-11 18:50:00,
2013-03-11 15:00:00,45.7,45.7,29.63,West,278,0.0,2.0,100,0.00,,,0.00,Wunderground v.1.13,2013-03-11 19:00:00,
2013-03-11 15:10:00,45.8,45.8,29.63,West,280,0.0,0.0,100,0.00,,,0.00,Wunderground v.1.13,2013-03-11 19:10:00,
2013-03-11 15:20:00,46.2,46.2,29.64,North,0,0.0,5.0,100,0.00,,,0.00,Wunderground v.1.13,2013-03-11 19:20:00,
2013-03-11 15:25:00,46.4,46.4,29.64,North,0,0.0,4.0,100,0.00,,,0.00,Wunderground v.1.13,2013-03-11 19:25:00,
2013-03-11 15:30:00,46.5,46.5,29.63,North,352,0.0,1.0,100,0.00,,,0.00,Wunderground v.1.13,2013-03-11 19:30:00,
2013-03-11 15:35:00,46.7,46.7,29.63,North,352,0.0,2.0,100,0.00,,,0.00,Wunderground v.1.13,2013-03-11 19:35:00,
2013-03-11 15:40:00,46.8,46.8,29.63,North,352,0.0,2.0,100,0.00,,,0.00,Wunderground v.1.13,2013-03-11 19:40:00,
2013-03-11 15:45:00,46.8,46.8,29.60,North,352,0.0,2.0,100,0.00,,,0.00,Wunderground v.1.13,2013-03-11 19:45:00,
2013-03-11 15:55:00,47.1,47.1,29.60,East,89,0.0,1.0,100,0.00,,,0.00,Wunderground v.1.13,2013-03-11 19:55:00,
2013-03-11 16:00:00,47.3,47.3,29.58,North,353,0.0,2.0,100,0.00,,,0.00,Wunderground v.1.13,2013-03-11 20:00:00,
2013-03-11 16:10:00,47.4,47.4,29.58,NW,305,0.0,2.0,100,0.00,,,0.00,Wunderground v.1.13,2013-03-11 20:10:00,
2013-03-11 16:15:00,47.4,47.4,29.60,NNW,335,0.0,1.0,100,0.00,,,0.00,Wunderground v.1.13,2013-03-11 20:15:00,
2013-03-11 16:20:00,47.6,47.6,29.60,NNW,335,0.0,3.0,100,0.00,,,0.00,Wunderground v.1.13,2013-03-11 20:20:00,
2013-03-11 16:25:00,47.6,47.6,29.60,NW,325,0.0,1.0,100,0.00,,,0.00,Wunderground v.1.13,2013-03-11 20:25:00,
2013-03-11 16:30:00,47.7,47.7,29.60,WSW,248,0.0,2.0,100,0.00,,,0.00,Wunderground v.1.13,2013-03-11 20:30:00,
2013-03-11 16:35:00,47.9,47.9,29.60,NNW,337,0.0,1.0,100,0.00,,,0.00,Wunderground v.1.13,2013-03-11 20:35:00,
2013-03-11 16:45:00,48.0,48.0,29.58,North,0,0.0,2.0,100,0.00,,,0.00,Wunderground v.1.13,2013-03-11 20:45:00,
2013-03-11 16:50:00,48.0,48.0,29.58,NW,315,1.0,1.0,100,0.00,,,0.00,Wunderground v.1.13,2013-03-11 20:50:00,
2013-03-11 16:55:00,48.2,48.2,29.58,SSW,205,1.0,1.0,100,0.00,,,0.00,Wunderground v.1.13,2013-03-11 20:55:00,
2013-03-11 17:05:00,48.2,48.2,29.58,NNW,344,0.0,2.0,100,0.00,,,0.00,Wunderground v.1.13,2013-03-11 21:05:00,
2013-03-11 17:10:00,48.3,48.3,29.58,NNW,344,0.0,2.0,100,0.00,,,0.00,Wunderground v.1.13,2013-03-11 21:10:00,
2013-03-11 17:20:00,48.3,48.3,29.57,NNW,340,0.0,2.0,100,0.00,,,0.00,Wunderground v.1.13,2013-03-11 21:20:00,
2013-03-11 17:25:00,48.5,48.5,29.57,WSW,253,0.0,5.0,100,0.00,,,0.00,Wunderground v.1.13,2013-03-11 21:25:00,
2013-03-11 17:31:00,48.5,48.5,29.56,WNW,292,0.0,1.0,100,0.00,,,0.00,Wunderground v.1.13,2013-03-11 21:31:00,
2013-03-11 17:40:00,48.5,48.5,29.56,East,93,0.0,2.0,100,0.00,,,0.00,Wunderground v.1.13,2013-03-11 21:40:00,
2013-03-11 17:50:00,48.5,48.5,29.57,NW,304,0.0,2.0,100,0.00,,,0.00,Wunderground v.1.13,2013-03-11 21:50:00,
2013-03-11 17:55:00,48.5,48.5,29.57,NNW,340,0.0,2.0,100,0.00,,,0.00,Wunderground v.1.13,2013-03-11 21:55:00,
2013-03-11 18:05:00,48.6,48.6,29.57,SE,144,0.0,1.0,100,0.00,,,0.00,Wunderground v.1.13,2013-03-11 22:05:00,
2013-03-11 18:10:00,48.5,48.5,29.57,NW,326,0.0,3.0,100,0.00,,,0.00,Wunderground v.1.13,2013-03-11 22:10:00,
2013-03-11 18:20:00,48.5,48.5,29.56,North,0,0.0,1.0,100,0.00,,,0.00,Wunderground v.1.13,2013-03-11 22:20:00,
2013-03-11 18:25:00,48.6,48.6,29.56,SW,230,0.0,2.0,100,0.00,,,0.00,Wunderground v.1.13,2013-03-11 22:25:00,
2013-03-11 18:30:00,48.6,48.6,29.57,WSW,254,0.0,1.0,100,0.00,,,0.00,Wunderground v.1.13,2013-03-11 22:30:00,
2013-03-11 18:35:00,48.6,48.6,29.57,SE,137,0.0,2.0,100,0.00,,,0.00,Wunderground v.1.13,2013-03-11 22:35:00,
2013-03-11 18:45:00,48.6,48.6,29.57,SW,226,0.0,0.0,100,0.00,,,0.00,Wunderground v.1.13,2013-03-11 22:45:00,
2013-03-11 18:50:00,48.6,48.6,29.57,SW,226,0.0,0.0,100,0.00,,,0.00,Wunderground v.1.13,2013-03-11 22:50:00,
2013-03-11 18:55:00,48.8,48.8,29.57,SW,226,0.0,0.0,100,0.00,,,0.00,Wunderground v.1.13,2013-03-11 22:55:00,
2013-03-11 19:05:00,48.8,48.8,29.57,SW,226,0.0,1.0,100,0.00,,,0.00,Wunderground v.1.13,2013-03-11 23:05:00,
2013-03-11 19:10:00,48.8,48.8,29.57,NW,322,0.0,0.0,100,0.00,,,0.00,Wunderground v.1.13,2013-03-11 23:10:00,
2013-03-11 19:20:00,48.9,48.9,29.57,South,184,0.0,0.0,100,0.00,,,0.00,Wunderground v.1.13,2013-03-11 23:20:00,
2013-03-11 19:25:00,48.9,48.9,29.57,SW,224,0.0,0.0,100,0.00,,,0.00,Wunderground v.1.13,2013-03-11 23:25:00,
2013-03-11 19:30:00,49.1,49.1,29.58,South,181,0.0,0.0,100,0.00,,,0.00,Wunderground v.1.13,2013-03-11 23:30:00,
2013-03-11 19:35:00,49.1,49.1,29.58,SSW,200,0.0,1.0,100,0.00,,,0.00,Wunderground v.1.13,2013-03-11 23:35:00,
2013-03-11 19:45:00,49.2,49.2,29.60,South,182,0.0,2.0,100,0.00,,,0.00,Wunderground v.1.13,2013-03-11 23:45:00,
2013-03-11 19:50:00,49.2,49.2,29.60,SSW,192,0.0,1.0,100,0.00,,,0.00,Wunderground v.1.13,2013-03-11 23:50:00,
2013-03-11 19:55:00,49.2,49.2,29.60,SSW,192,0.0,0.0,100,0.00,,,0.00,Wunderground v.1.13,2013-03-11 23:55:00,
2013-03-11 20:05:00,49.4,49.4,29.60,SSW,192,0.0,0.0,100,0.00,,,0.00,Wunderground v.1.13,2013-03-12 00:05:00,
2013-03-11 20:10:00,49.2,49.2,29.60,SSW,192,0.0,0.0,100,0.00,,,0.00,Wunderground v.1.13,2013-03-12 00:10:00,
2013-03-11 20:15:00,49.2,49.2,29.59,SSW,192,0.0,0.0,100,0.00,,,0.00,Wunderground v.1.13,2013-03-12 00:15:00,
2013-03-11 20:20:00,49.2,49.2,29.59,SSW,192,0.0,0.0,100,0.00,,,0.00,Wunderground v.1.13,2013-03-12 00:20:00,
2013-03-11 20:25:00,49.2,49.2,29.59,SSW,192,0.0,0.0,100,0.00,,,0.00,Wunderground v.1.13,2013-03-12 00:25:00,
2013-03-11 20:35:00,49.1,49.1,29.59,SSW,192,0.0,0.0,100,0.00,,,0.00,Wunderground v.1.13,2013-03-12 00:35:00,
2013-03-11 20:40:00,49.1,49.1,29.59,SSW,192,0.0,0.0,100,0.00,,,0.00,Wunderground v.1.13,2013-03-12 00:40:00,
2013-03-11 20:45:00,48.9,48.9,29.60,SSW,192,0.0,0.0,100,0.00,,,0.00,Wunderground v.1.13,2013-03-12 00:45:00,
2013-03-11 20:50:00,48.9,48.9,29.60,SSW,192,0.0,0.0,100,0.00,,,0.00,Wunderground v.1.13,2013-03-12 00:50:00,
2013-03-11 20:55:00,48.9,48.9,29.60,SSW,192,0.0,0.0,100,0.00,,,0.00,Wunderground v.1.13,2013-03-12 00:55:00,
2013-03-11 21:05:00,48.8,48.8,29.59,SE,128,0.0,3.0,100,0.00,,,0.00,Wunderground v.1.13,2013-03-12 01:05:00,
2013-03-11 21:15:00,48.8,48.8,29.58,SE,128,0.0,0.0,100,0.00,,,0.00,Wunderground v.1.13,2013-03-12 01:15:00,
2013-03-11 21:20:00,48.6,48.6,29.58,SE,128,0.0,0.0,100,0.00,,,0.00,Wunderground v.1.13,2013-03-12 01:20:00,
2013-03-11 21:25:00,48.6,48.6,29.58,SE,128,0.0,0.0,100,0.00,,,0.00,Wunderground v.1.13,2013-03-12 01:25:00,
2013-03-11 21:30:00,48.6,48.6,29.57,SE,128,0.0,1.0,100,0.00,,,0.00,Wunderground v.1.13,2013-03-12 01:30:00,
2013-03-11 21:35:00,48.6,48.6,29.57,SE,128,0.0,0.0,100,0.00,,,0.00,Wunderground v.1.13,2013-03-12 01:35:00,
2013-03-11 21:45:00,48.5,48.5,29.57,SE,128,0.0,0.0,100,0.00,,,0.00,Wunderground v.1.13,2013-03-12 01:45:00,
2013-03-11 21:50:00,48.3,48.3,29.57,SE,128,0.0,0.0,100,0.00,,,0.00,Wunderground v.1.13,2013-03-12 01:50:00,
2013-03-11 21:55:00,48.2,48.2,29.57,SE,130,0.0,0.0,100,0.00,,,0.00,Wunderground v.1.13,2013-03-12 01:55:00,
2013-03-11 22:05:00,48.0,48.0,29.57,SE,130,0.0,0.0,100,0.00,,,0.00,Wunderground v.1.13,2013-03-12 02:05:00,
2013-03-11 22:10:00,48.0,48.0,29.57,SE,138,0.0,0.0,100,0.00,,,0.00,Wunderground v.1.13,2013-03-12 02:10:00,
2013-03-11 22:15:00,48.0,48.0,29.57,SE,138,0.0,0.0,100,0.00,,,0.00,Wunderground v.1.13,2013-03-12 02:15:00,
2013-03-11 22:25:00,48.0,48.0,29.57,SE,138,0.0,0.0,100,0.00,,,0.00,Wunderground v.1.13,2013-03-12 02:25:00,
2013-03-11 22:30:00,47.9,47.9,29.56,SE,138,0.0,0.0,100,0.00,,,0.00,Wunderground v.1.13,2013-03-12 02:30:00,
2013-03-11 22:35:00,47.9,47.9,29.56,SE,141,0.0,0.0,100,0.00,,,0.00,Wunderground v.1.13,2013-03-12 02:35:00,
2013-03-11 22:40:00,47.9,47.9,29.56,SE,141,0.0,0.0,100,0.00,,,0.00,Wunderground v.1.13,2013-03-12 02:40:00,
2013-03-11 22:50:00,47.9,47.9,29.55,SE,141,0.0,0.0,100,0.00,,,0.00,Wunderground v.1.13,2013-03-12 02:50:00,
2013-03-11 22:55:00,47.9,47.9,29.55,SE,141,0.0,0.0,100,0.00,,,0.00,Wunderground v.1.13,2013-03-12 02:55:00,
2013-03-11 23:05:00,47.9,47.9,29.55,SE,141,0.0,0.0,100,0.00,,,0.00,Wunderground v.1.13,2013-03-12 03:05:00,
2013-03-11 23:10:00,47.9,47.9,29.55,SE,141,0.0,0.0,100,0.00,,,0.00,Wunderground v.1.13,2013-03-12 03:10:00,
2013-03-11 23:15:00,48.0,48.0,29.54,SE,141,0.0,0.0,100,0.00,,,0.00,Wunderground v.1.13,2013-03-12 03:15:00,
2013-03-11 23:20:00,48.0,48.0,29.54,SE,141,0.0,0.0,100,0.00,,,0.00,Wunderground v.1.13,2013-03-12 03:20:00,
2013-03-11 23:25:00,48.0,48.0,29.54,SE,140,0.0,1.0,100,0.00,,,0.00,Wunderground v.1.13,2013-03-12 03:25:00,
2013-03-11 23:30:00,48.0,48.0,29.54,SE,140,0.0,0.0,100,0.00,,,0.00,Wunderground v.1.13,2013-03-12 03:30:00,
2013-03-11 23:40:00,48.2,48.2,29.54,SE,140,0.0,0.0,100,0.00,,,0.00,Wunderground v.1.13,2013-03-12 03:40:00,
2013-03-11 23:45:00,48.2,48.2,29.54,SE,140,0.0,0.0,100,0.00,,,0.00,Wunderground v.1.13,2013-03-12 03:45:00,
2013-03-11 23:50:00,48.2,48.2,29.54,SE,140,0.0,0.0,100,0.00,,,0.00,Wunderground v.1.13,2013-03-12 03:50:00,